PORT of CASTELLON

Paese: Spain Paese: Spain (ES)
Latitudine / Longitudine: 39.967005° / 0.020405295° Mostra sulla mappa Mostra sulla mappa
Ora locale:  UTC +2
UN/LOCODE: ESCAS
Navi attualmente in porto: 1
Arrivi previsti: 9

Arrivi e Partenze recenti


Nome della nave
Arrivo (UTC)
Arrivo (LT)
Partenza (UTC)
Partenza (LT)
Vessel Type: Nave Cargo  SARA BORCHARD 2014-09-22 22:12:00 2014-09-23 00:12:00 2014-09-23 03:22:00 2014-09-23 05:22:00
Vessel Type: Peschereccio  PEPE LASAL UNO 2014-09-17 07:03:00 2014-09-17 09:03:00 2014-09-22 18:45:00 2014-09-22 20:45:00
Vessel Type: Rimorchiatore, Pilotina  GUARDAMAR POLIMNIA 2014-09-12 15:46:00 2014-09-12 17:46:00 2014-09-21 11:35:00 2014-09-21 13:35:00
Vessel Type: Nave Cargo  MSC ALABAMA 2014-09-20 14:13:00 2014-09-20 16:13:00 2014-09-21 07:32:00 2014-09-21 09:32:00
Vessel Type: Nave Cargo  NORDIC LUEBECK 2014-09-20 23:01:00 2014-09-21 01:01:00 2014-09-21 04:53:00 2014-09-21 06:53:00
Vessel Type: Nave Cargo  JUDITH BORCHARD 2014-09-20 23:38:00 2014-09-21 01:38:00
Vessel Type: Nave Cargo  TANAIS FLYER 2014-09-18 09:54:00 2014-09-18 11:54:00 2014-09-20 12:28:00 2014-09-20 14:28:00
Vessel Type: Nave Cargo  COROZAL 2014-09-18 20:06:00 2014-09-18 22:06:00 2014-09-20 09:08:00 2014-09-20 11:08:00
Vessel Type: Nave Cargo  SMARAGD 2014-09-19 17:15:00 2014-09-19 19:15:00 2014-09-20 02:11:00 2014-09-20 04:11:00
Vessel Type: Nave Cargo  WESTERDIEK 2014-09-19 10:24:00 2014-09-19 12:24:00 2014-09-20 01:49:00 2014-09-20 03:49:00

Arrivi previsti


Nome della nave
Scheduled Arrival (UTC)
Arrivo previsto (ora locale)
Tempo di arrivo stimato (UTC)
Tempo di arrivo stimato (ora locale)
Vessel Type: Nave cisterna  VALSESIA 2014-09-22 11:00:00 2014-09-22 13:00:00
Vessel Type: Nave cisterna  BRO NYBORG 2014-09-22 20:30:00 2014-09-22 22:30:00
Vessel Type: Nave Cargo  CARIBANA EXPRESS 2014-09-23 14:00:00 2014-09-23 16:00:00 2014-09-23 13:13:00 2014-09-23 15:13:00
Vessel Type: Nave Cargo  HUNZEDIJK 2014-09-23 16:00:00 2014-09-23 18:00:00
Vessel Type: Nave cisterna  TINERFE 2014-09-24 13:00:00 2014-09-24 15:00:00
Vessel Type: Nave Cargo  SWALLOW 2014-09-25 06:00:00 2014-09-25 08:00:00 2014-09-24 12:28:00 2014-09-24 14:28:00
Vessel Type: Nave Cargo  WILSON GIJON 2014-09-26 17:00:00 2014-09-26 19:00:00 2014-09-26 07:24:00 2014-09-26 09:24:00
Vessel Type: Nave Cargo  JOZICA 2014-09-29 12:00:00 2014-09-29 14:00:00 2014-09-30 03:20:00 2014-09-30 05:20:00
Vessel Type: Nave Cargo  ULUS WIND 2014-09-30 08:00:00 2014-09-30 10:00:00

Wind Forecast


    
Ora (UTC)
Velocità
Direction
Temperature
2014-09-23 06:00:00 16 knots 29° 22°C
2014-09-23 09:00:00 14 knots 61° 22°C
2014-09-23 12:00:00 10 knots 98° 22°C
2014-09-23 15:00:00 7 knots 94° 23°C
2014-09-23 18:00:00 4 knots 108° 23°C
2014-09-23 21:00:00 2 knots 92° 23°C
2014-09-24 00:00:00 3 knots 57° 23°C
2014-09-24 03:00:00 3 knots 344° 23°C
2014-09-24 06:00:00 6 knots 326° 22°C
2014-09-24 09:00:00 3 knots 359° 23°C
2014-09-24 12:00:00 5 knots 163° 23°C
2014-09-24 15:00:00 7 knots 116° 23°C
2014-09-24 18:00:00 6 knots 98° 24°C
2014-09-24 21:00:00 3 knots 62° 24°C
2014-09-25 00:00:00 6 knots 70° 23°C
2014-09-25 03:00:00 10 knots 55° 23°C
2014-09-25 06:00:00 14 knots 48° 23°C